Regional Weather Roundup
Issued by NWS Little Rock, AR

Home | Current Version | Previous Version | Text Only | Print | Product List | Glossary Off
Versions: 1 2 3 4 5 6 7 8 9 10 11 12 13 14 15 16 17 18 19 20 21 22 23 24 25 26 27 28 29 30 31 32

000
ASUS44 KLZK 240405
RWRLZK

WEATHER ROUNDUP FOR ARKANSAS
NATIONAL WEATHER SERVICE LITTLE ROCK AR
1100 PM CDT MON APR 23 2018

NOTE: "FAIR" INDICATES FEW OR NO CLOUDS BELOW 12,000 FEET WITH NO
SIGNIFICANT WEATHER AND/OR OBSTRUCTIONS TO VISIBILITY.

ARZ001-003-010-029-240500-
NORTHWEST ARKANSAS

CITY           SKY/WX    TMP DP  RH WIND       PRES   REMARKS
FAYETTEVILLE   CLEAR     52  47  83 NW3       30.01S
FORT SMITH     CLEAR     60  49  66 CALM      29.99R
HARRISON       CLEAR     56  50  80 N3        30.01R
BENTONVILLE    CLEAR     58  47  66 N5        30.04R
ROGERS         PTCLDY    57  45  64 N3        30.03R
SILOAM SPGS    CLEAR     55  45  68 N3        30.03S
HIGHFILL       CLEAR     56  45  66 N7        30.02S
$$

ARZ004-005-016-240500-
NORTH CENTRAL ARKANSAS

CITY           SKY/WX    TMP DP  RH WIND       PRES   REMARKS
BATESVILLE     MOCLDY    56  54  93 VRB3      29.97S
FLIPPIN        CLOUDY    57  52  83 N5        29.99F
MTN HOME       CLEAR     55  52  89 CALM      29.98S
$$

ARZ040-041-240500-
WEST CENTRAL ARKANSAS

CITY           SKY/WX    TMP DP  RH WIND       PRES   REMARKS
MENA           CLEAR     55  54  94 CALM      30.00R
MOUNT IDA      PTCLDY    59  55  87 CALM      29.96R
$$

ARZ009-017-025-026-028-240500-
NORTHEAST ARKANSAS

CITY           SKY/WX    TMP DP  RH WIND       PRES   REMARKS
CORNING        CLOUDY    59  59 100 NW8       29.94S
JONESBORO      CLOUDY    54  54 100 NW3       29.94F
NEWPORT        CLOUDY    56  55  97 N8        29.95F
WALNUT RIDGE   FAIR      55  54  96 NW8       29.95S
BLYTHEVILLE    FAIR      55  53  93 W5        29.93S
$$

ARZ022-023-033-042-044-240500-
CENTRAL ARKANSAS

CITY           SKY/WX    TMP DP  RH WIND       PRES   REMARKS
LITTLE ROCK    FAIR      57  54  89 NW6       29.96F
N LITTLE ROCK    N/A     56  54  94 CALM      29.94S
JACKSONVILLE   MOCLDY    58  56  92 W3        29.96R
CONWAY         PTCLDY    55  55 100 NW6       29.97S
SEARCY         CLOUDY    58  58 100 N8        29.96S
HOT SPRINGS    PTCLDY    59  55  87 E7        29.97S
RUSSELLVILLE   CLEAR     54  51  90 CALM      29.97R
CLINTON        MOCLDY    55  55 100 CALM      29.98S
$$

ARZ036-240500-
EAST ARKANSAS

CITY           SKY/WX    TMP DP  RH WIND       PRES   REMARKS
WEST MEMPHIS   CLOUDY    56  55  97 CALM      29.93S
$$

ARZ050-053-066-070-073-240500-
SOUTHWEST ARKANSAS

CITY           SKY/WX    TMP DP  RH WIND       PRES   REMARKS
ARKADELPHIA    CLOUDY    63  56  78 N6        29.97R
CAMDEN         CLOUDY    63  55  77 CALM      29.95S
TEXARKANA      CLEAR     60  55  83 W5        29.98S
EL DORADO      CLOUDY    60  59  96 SW5       29.96S
DE QUEEN       CLEAR     56  56 100 CALM      29.97R FOG
$$

ARZ056-057-069-240500-
SOUTHEAST ARKANSAS

CITY           SKY/WX    TMP DP  RH WIND       PRES   REMARKS
PINE BLUFF     FAIR      56  54  93 W5        29.97S
STUTTGART      CLOUDY    57  55  93 NW7       29.96S
MONTICELLO     CLOUDY    60  57  89 CALM      29.95R

$$






USA.gov is the U.S. government's official web portal to all federal, state and local government web resources and services.